D8954 Weather Reports


Display with metric or nautical units.
time (UTC)temp
F
wind
direction
speed
MPH
gust
MPH
rain 1hr
in
rain 24hr
in
rain mn
in
humidity
%
barometer
mb
20260902204505 61 287 2.0 3.0 0.00 0.00 0.00 70 1021.3
20260902204006 62 288 3.0 5.0 0.00 0.00 0.00 69 1021.3
20260902203506 62 286 2.0 3.0 0.00 0.00 0.00 68 1021.3
20260902203005 63 292 2.0 3.0 0.00 0.00 0.00 68 1021.2
20260902202505 63 286 2.0 3.0 0.00 0.00 0.00 67 1021.2
20260902202005 63 286 2.0 3.0 0.00 0.00 0.00 66 1021.2
20260902201505 64 286 1.0 2.0 0.00 0.00 0.00 65 1021.2
20260902201005 64 286 1.0 3.0 0.00 0.00 0.00 65 1021.2
20260902200504 64 285 2.0 3.0 0.00 0.00 0.00 65 1021.1
20260902200006 64 285 2.0 3.0 0.00 0.00 0.00 64 1021.2
20260902195505 64 293 2.0 2.0 0.00 0.00 0.00 63 1021.2
20260902195005 64 293 1.0 3.0 0.00 0.00 0.00 64 1021.1
20260902194505 64 292 2.0 3.0 0.00 0.00 0.00 64 1021.1
20260902194005 64 287 1.0 3.0 0.00 0.00 0.00 64 1021.0
20260902193505 63 312 2.0 3.0 0.00 0.00 0.00 66 1021.0
20260902193005 63 328 2.0 3.0 0.00 0.00 0.00 67 1020.9
20260902192506 63 318 1.0 2.0 0.00 0.00 0.00 66 1020.8
20260902191505 64 318 0.0 1.0 0.00 0.00 0.00 64 1020.7
20260902191005 64 318 0.0 1.0 0.00 0.00 0.00 64 1020.7
20260902190005 64 319 0.0 1.0 0.00 0.00 0.00 65 1020.6
20260902185505 64 319 0.0 1.0 0.00 0.00 0.00 66 1020.5
20260902185006 64 318 1.0 2.0 0.00 0.00 0.00 65 1020.4
20260902184006 65 319 0.0 2.0 0.00 0.00 0.00 63 1020.5
20260902183505 65 319 1.0 3.0 0.00 0.00 0.00 63 1020.4
20260902183005 66 317 1.0 3.0 0.00 0.00 0.00 63 1020.4
20260902182006 67 5 1.0 5.0 0.00 0.00 0.00 63 1020.3
20260902181505 67 342 2.0 5.0 0.00 0.00 0.00 63 1020.3
20260902181005 68 327 1.0 3.0 0.00 0.00 0.00 62 1020.2
20260902180505 68 320 2.0 8.0 0.00 0.00 0.00 63 1020.1
20260902180007 68 289 1.0 3.0 0.00 0.00 0.00 62 1020.1
20260902175505 68 289 0.0 1.0 0.00 0.00 0.00 63 1020.1
20260902175005 68 289 0.0 2.0 0.00 0.00 0.00 63 1020.1
20260902174505 68 289 1.0 2.0 0.00 0.00 0.00 62 1020.0
20260902174005 69 288 0.0 3.0 0.00 0.00 0.00 61 1020.0
20260902173505 69 319 0.0 0.0 0.00 0.00 0.00 61 1019.9
20260902173005 69 319 0.0 1.0 0.00 0.00 0.00 60 1019.9
20260902172505 69 322 1.0 5.0 0.00 0.00 0.00 60 1019.9
20260902172005 70 333 1.0 3.0 0.00 0.00 0.00 58 1019.9
20260902171505 70 3 3.0 8.0 0.00 0.00 0.00 59 1019.9
20260902171005 70 299 2.0 3.0 0.00 0.00 0.00 59 1019.9
20260902170505 70 0 2.0 5.0 0.00 0.00 0.00 58 1019.8
20260902170005 71 303 2.0 6.0 0.00 0.00 0.00 57 1019.8
20260902165505 71 19 3.0 7.0 0.00 0.00 0.00 56 1019.8
20260902165005 71 326 4.0 8.0 0.00 0.00 0.00 57 1019.8
20260902164505 71 351 2.0 3.0 0.00 0.00 0.00 57 1019.9
20260902164006 71 246 2.0 6.0 0.00 0.00 0.00 56 1019.8
20260902163005 71 247 2.0 5.0 0.00 0.00 0.00 56 1019.8
20260902162505 71 309 1.0 3.0 0.00 0.00 0.00 56 1019.8
20260902162005 71 280 2.0 6.0 0.00 0.00 0.00 55 1019.8
20260902161005 71 312 4.0 10.0 0.00 0.00 0.00 57 1019.8
20260902160007 71 337 2.0 8.0 0.00 0.00 0.00 57 1019.9
20260902155505 71 349 2.0 6.0 0.00 0.00 0.00 56 1019.8
20260902155005 71 319 2.0 3.0 0.00 0.00 0.00 55 1019.8
20260902154505 71 332 2.0 9.0 0.00 0.00 0.00 57 1019.9
20260902154005 72 280 1.0 3.0 0.00 0.00 0.00 58 1019.9
20260902153005 72 329 2.0 6.0 0.00 0.00 0.00 56 1020.0
20260902152506 71 255 1.0 7.0 0.00 0.00 0.00 56 1020.0
20260902152005 71 233 1.0 10.0 0.00 0.00 0.00 57 1020.0
20260902151005 71 301 2.0 8.0 0.00 0.00 0.00 56 1020.1
20260902150505 71 315 2.0 8.0 0.00 0.00 0.00 55 1020.0
20260902150006 72 253 2.0 6.0 0.00 0.00 0.00 55 1020.0
20260902145006 72 317 2.0 5.0 0.00 0.00 0.00 54 1020.0
20260902144504 72 266 2.0 6.0 0.00 0.00 0.00 56 1020.1
20260902144006 72 268 2.0 8.0 0.00 0.00 0.00 55 1020.1
20260902143505 73 313 3.0 10.0 0.00 0.00 0.00 55 1020.1
20260902143004 72 303 6.0 10.0 0.00 0.00 0.00 55 1020.1
20260902142505 73 190 1.0 12.0 0.00 0.00 0.00 54 1020.1
20260902142005 72 19 2.0 8.0 0.00 0.00 0.00 55 1020.1
20260902141505 72 222 3.0 10.0 0.00 0.00 0.00 56 1020.1
20260902141006 72 329 6.0 12.0 0.00 0.00 0.00 53 1020.1
20260902140505 73 343 6.0 10.0 0.00 0.00 0.00 54 1020.5
20260902140005 73 8 3.0 9.0 0.00 0.00 0.00 55 1020.1
20260902135505 73 19 2.0 8.0 0.00 0.00 0.00 56 1020.0
20260902135005 73 330 6.0 12.0 0.00 0.00 0.00 54 1020.0
20260902134505 73 267 3.0 10.0 0.00 0.00 0.00 52 1020.1
20260902134006 73 336 3.0 14.0 0.00 0.00 0.00 53 1020.0
20260902133505 73 332 1.0 3.0 0.00 0.00 0.00 56 1020.1
20260902133005 73 291 2.0 6.0 0.00 0.00 0.00 55 1020.1
20260902132005 73 53 3.0 12.0 0.00 0.00 0.00 55 1020.1
20260902131505 73 334 5.0 9.0 0.00 0.00 0.00 56 1020.1
20260902131005 73 330 5.0 10.0 0.00 0.00 0.00 56 1020.1
20260902130505 73 235 2.0 7.0 0.00 0.00 0.00 54 1020.1
20260902124505 73 278 1.0 7.0 0.00 0.00 0.00 57 1020.2
20260902124006 72 319 2.0 9.0 0.00 0.00 0.00 57 1020.2
20260902123505 72 288 1.0 6.0 0.00 0.00 0.00 59 1020.2
20260902123005 72 348 3.0 9.0 0.00 0.00 0.00 57 1020.2
20260902122505 73 302 3.0 7.0 0.00 0.00 0.00 56 1020.2
20260902122005 72 9 2.0 7.0 0.00 0.00 0.00 59 1020.2
20260902121505 72 337 4.0 9.0 0.00 0.00 0.00 59 1020.2
20260902120504 71 324 2.0 6.0 0.00 0.00 0.00 61 1020.2
20260902120005 72 305 4.0 8.0 0.00 0.00 0.00 61 1020.2
20260902115505 72 2 3.0 12.0 0.00 0.00 0.00 61 1020.2
20260902115005 72 355 3.0 8.0 0.00 0.00 0.00 61 1020.2
20260902114505 72 285 2.0 3.0 0.00 0.00 0.00 60 1020.2
20260902114005 73 86 2.0 6.0 0.00 0.00 0.00 59 1020.2
20260902113504 72 14 7.0 12.0 0.00 0.00 0.00 59 1020.3
20260902113005 72 25 7.0 12.0 0.00 0.00 0.00 60 1020.5
20260902112505 71 17 5.0 10.0 0.00 0.00 0.00 60 1020.5
20260902111505 70 322 4.0 10.0 0.00 0.00 0.00 62 1020.8
20260902111005 70 346 4.0 8.0 0.00 0.00 0.00 62 1020.6
20260902110505 70 43 3.0 7.0 0.00 0.00 0.00 64 1020.6
20260902110007 70 12 6.0 12.0 0.00 0.00 0.00 63 1020.7
20260902105505 69 336 4.0 10.0 0.00 0.00 0.00 65 1020.8
20260902105005 69 352 6.0 10.0 0.00 0.00 0.00 64 1020.8
20260902104006 70 329 3.0 9.0 0.00 0.00 0.00 64 1020.8
20260902103504 70 357 6.0 13.0 0.00 0.00 0.00 63 1020.8
20260902103005 70 24 2.0 12.0 0.00 0.00 0.00 60 1020.7
20260902102506 70 48 3.0 6.0 0.00 0.00 0.00 62 1020.8
20260902101504 70 296 2.0 7.0 0.00 0.00 0.00 60 1020.8
20260902101005 71 214 2.0 5.0 0.00 0.00 0.00 58 1020.8
20260902100505 71 351 3.0 5.0 0.00 0.00 0.00 58 1020.9
20260902100005 71 232 7.0 10.0 0.00 0.00 0.00 59 1020.9
20260902095505 71 223 2.0 3.0 0.00 0.00 0.00 59 1020.9
20260902095004 72 318 2.0 6.0 0.00 0.00 0.00 61 1020.9
20260902094006 70 346 1.0 3.0 0.00 0.00 0.00 60 1020.9
20260902093505 70 286 1.0 3.0 0.00 0.00 0.00 61 1021.0
20260902093005 70 233 1.0 2.0 0.00 0.00 0.00 61 1021.0
20260902092005 68 291 2.0 5.0 0.00 0.00 0.00 63 1021.0
20260902091504 69 278 2.0 5.0 0.00 0.00 0.00 61 1021.2
20260902091004 69 24 2.0 10.0 0.00 0.00 0.00 62 1021.1
20260902090005 69 302 5.0 9.0 0.00 0.00 0.00 61 1021.1
20260902085005 68 290 1.0 2.0 0.00 0.00 0.00 70 1021.0
20260902084504 66 246 1.0 2.0 0.00 0.00 0.00 75 1020.9
20260902084005 65 274 0.0 2.0 0.00 0.00 0.00 75 1020.8
20260902083504 64 273 0.0 1.0 0.00 0.00 0.00 77 1020.9
20260902083005 63 273 0.0 0.0 0.00 0.00 0.00 75 1021.1
20260902082505 62 273 0.0 1.0 0.00 0.00 0.00 75 1021.1
20260902082005 62 273 0.0 0.0 0.00 0.00 0.00 76 1021.1
20260902081505 62 273 0.0 1.0 0.00 0.00 0.00 78 1021.0
20260902081005 62 273 0.0 0.0 0.00 0.00 0.00 77 1020.9
20260902080504 61 273 0.0 0.0 0.00 0.00 0.00 77 1021.0
20260902080005 61 273 0.0 1.0 0.00 0.00 0.00 78 1020.9
20260902075005 60 273 0.0 0.0 0.00 0.00 0.00 79 1020.8
20260902074504 60 273 0.0 0.0 0.00 0.00 0.00 78 1020.8
20260902073504 60 273 0.0 0.0 0.00 0.00 0.00 80 1020.7
20260902073004 59 273 0.0 0.0 0.00 0.00 0.00 81 1020.5
20260902072505 59 273 0.0 1.0 0.00 0.00 0.00 80 1020.5
20260902072005 59 273 0.0 0.0 0.00 0.00 0.00 78 1020.5
20260902071505 59 273 0.0 2.0 0.00 0.00 0.00 79 1020.6
20260902070505 59 273 0.0 1.0 0.00 0.00 0.00 81 1020.5
20260902070006 58 273 0.0 0.0 0.00 0.00 0.00 82 1020.6
20260902064504 57 273 0.0 0.0 0.00 0.00 0.00 83 1020.6
20260902064005 56 273 0.0 0.0 0.00 0.00 0.00 81 1020.6
20260902063505 56 273 0.0 0.0 0.00 0.00 0.00 81 1020.5
20260902063005 56 273 0.0 0.0 0.00 0.00 0.00 81 1020.6
20260902062504 56 273 0.0 0.0 0.00 0.00 0.00 81 1020.6
20260902062004 56 273 0.0 0.0 0.00 0.00 0.00 82 1020.7
20260902061504 55 273 1.0 1.0 0.00 0.00 0.00 82 1020.7
20260902061005 55 275 0.0 0.0 0.00 0.00 0.00 85 1020.7
20260902060505 55 275 0.0 0.0 0.00 0.00 0.00 85 1020.7
20260902060004 54 275 0.0 0.0 0.00 0.00 0.00 84 1020.7
20260902055005 54 275 0.0 0.0 0.00 0.00 0.00 84 1020.7
20260902054505 54 275 0.0 0.0 0.00 0.00 0.00 83 1020.7
20260902054005 54 275 0.0 0.0 0.00 0.00 0.00 82 1020.6
20260902053505 54 275 0.0 0.0 0.00 0.00 0.00 82 1020.6
20260902053004 54 275 0.0 0.0 0.00 0.00 0.00 82 1020.5
20260902052505 54 275 0.0 0.0 0.00 0.00 0.00 84 1020.5
20260902051504 53 275 0.0 0.0 0.00 0.00 0.00 84 1020.4
20260902051005 53 275 0.0 0.0 0.00 0.00 0.00 84 1020.4
20260902050505 53 275 0.0 0.0 0.00 0.00 0.00 84 1020.3
20260902050007 53 275 0.0 0.0 0.00 0.00 0.00 83 1020.4
20260902045505 53 275 0.0 0.0 0.00 0.00 0.00 82 1020.6
20260902045005 53 275 0.0 0.0 0.00 0.00 0.00 82 1020.5
20260902044006 53 275 0.0 0.0 0.00 0.00 0.00 84 1020.4
20260902043504 52 275 0.0 0.0 0.00 0.00 0.00 84 1020.5
20260902043005 53 275 0.0 1.0 0.00 0.00 0.00 83 1020.4
20260902042504 53 275 0.0 0.0 0.00 0.00 0.00 82 1020.5
20260902042005 54 275 0.0 0.0 0.00 0.00 0.00 81 1020.5
20260902041505 54 275 0.0 1.0 0.00 0.00 0.00 83 1020.5
20260902041005 53 275 0.0 1.0 0.00 0.00 0.00 82 1020.6
20260902040505 53 275 0.0 0.0 0.00 0.00 0.00 80 1020.6
20260902040004 53 275 0.0 0.0 0.00 0.00 0.00 81 1020.5
20260902035505 53 275 0.0 0.0 0.00 0.00 0.00 82 1020.6
20260902034504 53 275 0.0 0.0 0.00 0.00 0.00 82 1020.6
20260902034005 53 275 1.0 1.0 0.00 0.00 0.00 81 1020.6
20260902033505 53 275 1.0 2.0 0.00 0.00 0.00 82 1020.6
20260902033005 53 275 0.0 0.0 0.00 0.00 0.00 82 1020.6
20260902032504 53 275 0.0 0.0 0.00 0.00 0.00 83 1020.5
20260902032004 53 275 0.0 1.0 0.00 0.00 0.00 82 1020.5
20260902031504 53 275 1.0 1.0 0.00 0.00 0.00 83 1020.6
20260902031005 53 275 1.0 2.0 0.00 0.00 0.00 83 1020.5
20260902030504 53 275 1.0 2.0 0.00 0.00 0.00 83 1020.6
20260902025504 53 275 2.0 3.0 0.00 0.00 0.00 84 1020.6
20260902025004 52 275 1.0 2.0 0.00 0.00 0.00 84 1020.6
20260902024505 53 275 0.0 3.0 0.00 0.00 0.00 83 1020.7
20260902024005 53 275 2.0 3.0 0.00 0.00 0.00 83 1020.7
20260902023505 53 275 1.0 2.0 0.00 0.00 0.00 84 1020.6
20260902023004 53 275 1.0 2.0 0.00 0.00 0.00 84 1020.7
20260902022504 53 275 0.0 2.0 0.00 0.00 0.00 84 1020.6
20260902022005 53 275 2.0 3.0 0.00 0.00 0.00 83 1020.7
20260902021505 53 275 2.0 2.0 0.00 0.01 0.00 83 1020.6
20260902021004 53 275 1.0 2.0 0.00 0.01 0.00 83 1020.6
20260902020504 53 275 2.0 2.0 0.00 0.01 0.00 83 1020.7
20260902020004 53 275 0.0 2.0 0.00 0.01 0.00 84 1020.6
20260902015504 53 275 1.0 2.0 0.00 0.01 0.00 84 1020.6
20260902014504 53 275 2.0 3.0 0.00 0.01 0.00 83 1020.6
20260902014005 53 275 0.0 1.0 0.00 0.01 0.00 84 1020.6
20260902013504 53 275 1.0 2.0 0.00 0.01 0.00 83 1020.7
20260902013005 54 275 1.0 2.0 0.00 0.01 0.00 82 1020.6
20260902012005 54 276 1.0 3.0 0.00 0.01 0.00 82 1020.5
20260902011504 54 276 3.0 3.0 0.00 0.01 0.00 83 1020.7
20260902011005 54 285 1.0 2.0 0.00 0.01 0.00 83 1020.7
20260902010005 54 286 0.0 2.0 0.00 0.01 0.00 83 1020.9
20260902005504 54 286 1.0 1.0 0.00 0.01 0.00 84 1020.9
20260902005004 54 286 0.0 1.0 0.00 0.01 0.00 84 1020.8
20260902003005 55 286 1.0 3.0 0.00 0.01 0.00 83 1020.9
20260902002504 54 286 2.0 3.0 0.00 0.01 0.00 84 1020.9
20260902001504 54 286 1.0 2.0 0.00 0.01 0.00 83 1021.0
20260902001005 55 286 2.0 3.0 0.00 0.01 0.00 83 1021.0
20260902000504 55 286 2.0 3.0 0.00 0.01 0.00 83 1021.1
20260902000005 55 288 1.0 2.0 0.00 0.01 0.00 84 1021.1
20260901235504 55 288 0.0 1.0 0.00 0.01 0.00 83 1021.2
20260901235005 55 288 1.0 2.0 0.00 0.01 0.00 83 1021.2
20260901234006 55 295 2.0 3.0 0.00 0.01 0.00 83 1021.2
20260901233505 55 296 1.0 2.0 0.00 0.01 0.00 83 1021.3
20260901233004 55 296 1.0 2.0 0.00 0.01 0.00 83 1021.4
20260901232004 55 296 2.0 2.0 0.00 0.01 0.00 83 1021.4
20260901231504 55 296 1.0 2.0 0.00 0.01 0.00 83 1021.5
20260901231004 55 297 1.0 2.0 0.00 0.01 0.00 83 1021.4
20260901230505 55 297 1.0 2.0 0.00 0.01 0.00 83 1021.4
20260901230004 55 296 1.0 2.0 0.00 0.01 0.00 83 1021.2
20260901225505 55 296 0.0 1.0 0.00 0.01 0.00 84 1021.2
20260901224504 56 297 1.0 2.0 0.00 0.01 0.00 83 1021.2
20260901224005 56 296 2.0 3.0 0.00 0.01 0.00 83 1021.1
20260901223504 56 297 2.0 2.0 0.00 0.01 0.00 83 1021.1
20260901223005 56 297 2.0 2.0 0.00 0.01 0.00 83 1021.2
20260901222006 56 298 2.0 2.0 0.00 0.01 0.00 82 1021.1
20260901221504 57 298 2.0 3.0 0.00 0.01 0.00 81 1021.1
20260901221004 57 298 2.0 3.0 0.00 0.01 0.00 81 1021.1
20260901220504 56 299 2.0 3.0 0.00 0.01 0.00 82 1021.1
20260901220004 57 319 1.0 2.0 0.00 0.01 0.00 81 1021.2
20260901215504 57 273 3.0 3.0 0.00 0.01 0.01 82 1021.2
20260901215005 57 279 2.0 3.0 0.00 0.01 0.01 82 1021.1
20260901214504 57 279 2.0 3.0 0.00 0.01 0.01 81 1021.1
20260901213504 58 281 2.0 3.0 0.00 0.01 0.01 80 1021.0
20260901213004 58 280 2.0 3.0 0.00 0.01 0.01 81 1021.0
20260901212504 58 280 2.0 3.0 0.00 0.01 0.01 81 1021.0
20260901212005 58 281 2.0 3.0 0.00 0.01 0.01 81 1021.0
20260901211504 57 282 2.0 3.0 0.00 0.01 0.01 82 1021.0
20260901211005 57 285 2.0 3.0 0.00 0.01 0.01 82 1021.2
20260901210504 57 286 2.0 3.0 0.00 0.01 0.01 82 1021.2
20260901210004 57 290 3.0 3.0 0.00 0.01 0.01 82 1021.3
20260901205504 58 291 3.0 3.0 0.00 0.01 0.01 82 1021.3
20260901205004 58 288 3.0 3.0 0.00 0.01 0.01 82 1021.3